Emporia, KS

12:25 PM CDT on May 28, 2017 (GMT -0500)
Emporia Municipal

Weather History for KEMP - September, 2012

Change the Weather History Date:

Tuesday, September 4, 2012

  Actual Average Record
Temperature  
Mean Temperature 84 °F 73 °F  
Max Temperature 99 °F 86 °F 99 °F (2000)
Min Temperature 69 °F 61 °F 48 °F (1997)
Degree Days  
Heating Degree Days 0 0  
Month to date heating degree days 0 0  
Since 1 July heating degree days 0 1  
Cooling Degree Days 19 9  
Month to date cooling degree days 74 36  
Year to date cooling degree days 1783 1244  
Growing Degree Days 35 (Base 50)    
Moisture  
Dew Point 67 °F    
Average Humidity 62    
Maximum Humidity 93    
Minimum Humidity 30    
Precipitation  
Precipitation 0.44 in 0.17 in 0.54 in (1999)
Month to date precipitation 0.44 0.66  
Year to date precipitation 14.81 27.27  
Sea Level Pressure  
Sea Level Pressure 29.83 in    
Wind  
Wind Speed 6 mph (SSW)    
Max Wind Speed 25 mph    
Max Gust Speed 37 mph    
Visibility 10 miles    
Events Rain , Thunderstorm    
T = Trace of Precipitation, MM = Missing Value Source: NWS Daily Summary

Daily Weather History Graph

Daily Weather History Graph

Search for Another Location

Airport or City:

Trip Planner

Search our weather history database for the weather conditions in past years. The results will help you decide how hot, cold, wet, or windy it might be!

Date:

Astronomy

Sep. 04, 2012 Rise Set
Actual Time 6:57 AM CDT 7:49 PM CDT
Civil Twilight 6:30 AM CDT 8:16 PM CDT
Nautical Twilight 5:58 AM CDT 8:47 PM CDT
Astronomical Twilight 5:25 AM CDT 9:20 PM CDT
Moon 9:47 PM CDT (9/4) 11:00 AM CDT (9/4)
Length of Visible Light 13h 45m
Length of Day
12h 51m
Waning Gibbous, 83% of the Moon is Illuminated
Sep 4
Waning Gibbous
Sep 8
Last Quarter
Sep 15
New
Sep 22
First Quarter
Sep 29
Full

Hourly Weather History & Observations

Time (CDT) Temp. Heat Index Dew Point Humidity Pressure Visibility Wind Dir Wind Speed Gust Speed Precip Events Conditions
12:53 AM 79.0 °F - 71.1 °F 77% 29.81 in 10.0 mi East 8.1 mph - N/A   Clear
1:53 AM 79.0 °F - 71.1 °F 77% 29.81 in 10.0 mi ESE 9.2 mph - N/A   Clear
2:53 AM 77.0 °F - 71.1 °F 82% 29.84 in 10.0 mi North 6.9 mph - N/A   Clear
3:53 AM 77.0 °F - 68.0 °F 74% 29.83 in 10.0 mi NE 10.4 mph - N/A Thunderstorm Mostly Cloudy
4:26 AM 75.2 °F - 69.8 °F 83% 29.86 in 10.0 mi ESE 6.9 mph - 0.01 in   Scattered Clouds
4:44 AM 73.4 °F - 69.8 °F 88% 29.88 in 1.8 mi Calm Calm - 0.16 in Rain , Thunderstorm Heavy Thunderstorms and Rain
4:53 AM 73.9 °F - 70.0 °F 87% 29.83 in 4.0 mi SSE 9.2 mph - 0.18 in Rain , Thunderstorm Light Thunderstorms and Rain
5:53 AM 73.9 °F - 70.0 °F 87% 29.82 in 10.0 mi ESE 8.1 mph - 0.00 in Thunderstorm Clear
6:03 AM 73.4 °F - 69.8 °F 88% 29.86 in 10.0 mi SE 8.1 mph - N/A   Clear
6:53 AM 73.0 °F - 70.0 °F 90% 29.84 in 10.0 mi Calm Calm - 0.00 in   Clear
7:53 AM 72.0 °F - 70.0 °F 93% 29.85 in 10.0 mi South 3.5 mph - N/A   Clear
8:53 AM 79.0 °F - 71.1 °F 77% 29.86 in 10.0 mi Calm Calm - N/A   Clear
9:53 AM 86.0 °F 88.2 °F 66.0 °F 51% 29.86 in 10.0 mi Variable 3.5 mph - N/A   Clear
10:53 AM 91.0 °F 93.8 °F 66.0 °F 44% 29.87 in 10.0 mi WNW 8.1 mph - N/A   Clear
11:53 AM 93.0 °F 95.0 °F 64.9 °F 39% 29.86 in 10.0 mi WNW 8.1 mph - N/A   Clear
12:53 PM 93.9 °F 94.0 °F 61.0 °F 33% 29.84 in 10.0 mi WNW 5.8 mph - N/A   Clear
1:53 PM 95.0 °F 95.6 °F 62.1 °F 33% 29.83 in 10.0 mi NW 4.6 mph - N/A   Clear
2:53 PM 96.1 °F 96.4 °F 61.0 °F 31% 29.81 in 10.0 mi Variable 4.6 mph - N/A   Clear
3:53 PM 98.1 °F 100.7 °F 64.0 °F 33% 29.80 in 10.0 mi SW 13.8 mph - N/A   Clear
5:53 PM 96.1 °F 96.9 °F 62.1 °F 32% 29.78 in 10.0 mi SW 5.8 mph - N/A   Clear
6:53 PM 93.0 °F 96.4 °F 66.9 °F 42% 29.76 in 10.0 mi Calm Calm - N/A   Clear
7:53 PM 88.0 °F 90.3 °F 66.0 °F 48% 29.77 in 10.0 mi SSE 4.6 mph - N/A   Clear
8:53 PM 81.0 °F 81.9 °F 62.1 °F 52% 29.80 in 10.0 mi South 5.8 mph - N/A   Clear
9:53 PM 78.1 °F - 64.0 °F 62% 29.80 in 10.0 mi Calm Calm - N/A   Clear
10:53 PM 77.0 °F - 64.9 °F 66% 29.80 in 10.0 mi North 4.6 mph - N/A   Clear
11:49 PM 78.8 °F - 64.4 °F 61% 29.85 in 10.0 mi West 6.9 mph - N/A Thunderstorm Scattered Clouds
11:53 PM 78.1 °F - 64.9 °F 64% 29.83 in 10.0 mi West 6.9 mph - 0.00 in Rain , Thunderstorm Light Rain